Home > Weather > Guatemala > Past weeks

Flag for Guatemala Past Weather in Guatemala, Guatemala — Yesterday and Last 2 Weeks

Now
63 °F

Passing clouds.


Feels Like: 63 °F
Forecast: 60 / 78 °F
Wind: 12 mph from Northeast

Location: Guatemala Aeropuertola Aurora

Current Time: Jul 26, 2016 at 6:13:33 AM

Latest Report: Jul 26, 2016 at 5:00 AM


Visibility: N/A

Pressure: 30.27 "Hg (25.27 "Hg at 1533m altitude)

Humidity: 94%

Dew Point: 61 °F

Location of GuatemalaLocation

Past Weather in Guatemala — Graph

°F

Guatemala Temperature Yesterday

Maximum temperature yesterday: 79 °F (at 4:00 PM)
Minimum temperature yesterday: 63 °F (at 1:00 AM)
Average temperature yesterday: 69 °F

High & Low Weather Summary for the Past Weeks

 TemperatureHumidityPressure
High81 °F (Jul 21, 2:00 PM)100% (Jul 24, 7:00 AM)30.39 "Hg (Jul 24, 7:00 AM)
Low61 °F (Jul 19, 5:00 AM)45% (Jul 14, 2:00 PM)29.59 "Hg (Jul 17, 11:00 PM)
Average69 °F77%30.29 "Hg
* Reported Jul 11 4:00 AM — Jul 26 4:00 AM, Guatemala, Weather by CustomWeather, © 2016

Note: Actual official high and low records may vary slightly from our data, if they occured in-between our weather recording intervals... More about our weather records

Advertising

Guatemala Weather History for the Previous 24 Hours

Scroll right to see more
 ConditionsComfort  
Time TempWeatherWind HumidityBarometerVisibility
4:00 AM
Tue, Jul 26
63 °FPassing clouds.14 mph94%30.24 "HgN/A
3:00 AM64 °FPassing clouds.9 mph88%30.24 "HgN/A
2:00 AM64 °FPassing clouds.9 mph94%30.24 "HgN/A
1:00 AM64 °FPassing clouds.9 mph88%30.24 "HgN/A
12:00 AM66 °FPartly cloudy.12 mph88%30.27 "HgN/A
11:00 PM
Mon, Jul 25
66 °FPassing clouds.9 mph83%30.30 "HgN/A
10:00 PM66 °FPassing clouds.9 mph78%30.27 "HgN/A
9:00 PM68 °FPassing clouds.9 mph73%30.27 "HgN/A
8:00 PM70 °FPassing clouds.12 mph64%30.24 "HgN/A
7:00 PM73 °FPassing clouds.16 mph61%30.21 "HgN/A
6:00 PM75 °FScattered clouds.16 mph100%30.21 "HgN/A
5:00 PM79 °FPassing clouds.14 mph45%30.18 "HgN/A
4:00 PM79 °FScattered clouds.14 mph45%30.18 "HgN/A
3:00 PM77 °FScattered clouds.18 mph51%30.21 "HgN/A
2:00 PM77 °FScattered clouds.16 mph47%30.24 "HgN/A
1:00 PM77 °FScattered clouds.21 mph47%30.24 "HgN/A
12:00 PM75 °FScattered clouds.21 mph50%30.27 "HgN/A
11:00 AM73 °FScattered clouds.21 mph57%30.30 "HgN/A
10:00 AM72 °FScattered clouds.21 mph65%30.30 "HgN/A
9:00 AM68 °FPartly sunny.18 mph78%30.30 "HgN/A
8:00 AM66 °FPartly sunny.16 mph83%30.30 "HgN/A
7:00 AM63 °FPartly sunny.14 mph94%30.30 "HgN/A
6:00 AM63 °FScattered clouds.12 mph88%30.27 "HgN/A
Weather by CustomWeather, © 2016

See weather overviewHow to use our weather pages